Time,TemperatureF,DewpointF,PressureIn,WindDirection,WindDirectionDegrees,WindSpeedMPH,WindSpeedGustMPH,Humidity,HourlyPrecipIn,Conditions,Clouds,dailyrainin,SoftwareType,DateUTC
2013-03-01 00:02:00,28.0,24.0,30.24,North,351,0.0,-999.0,85,-99.99,,,-99.99,,2013-03-01 06:02:00,
2013-03-01 00:11:00,28.0,24.0,30.24,North,351,0.0,-999.0,85,-99.99,,,-99.99,,2013-03-01 06:11:00,
2013-03-01 00:22:00,28.0,24.0,30.24,North,351,0.0,-999.0,85,-99.99,,,-99.99,,2013-03-01 06:22:00,
2013-03-01 00:32:00,28.0,24.0,30.24,North,351,0.0,-999.0,85,-99.99,,,-99.99,,2013-03-01 06:32:00,
2013-03-01 00:42:00,28.0,24.0,30.24,North,351,0.0,-999.0,85,-99.99,,,-99.99,,2013-03-01 06:42:00,
2013-03-01 00:52:00,28.0,24.0,30.24,North,351,0.0,-999.0,85,-99.99,,,-99.99,,2013-03-01 06:52:00,
2013-03-01 01:01:00,28.0,24.0,30.24,North,351,0.0,-999.0,85,-99.99,,,-99.99,,2013-03-01 07:01:00,
2013-03-01 01:11:00,28.0,24.0,30.24,North,351,0.0,-999.0,85,-99.99,,,-99.99,,2013-03-01 07:11:00,
2013-03-01 01:22:00,28.0,24.0,30.24,North,351,0.0,-999.0,85,-99.99,,,-99.99,,2013-03-01 07:22:00,
2013-03-01 01:32:00,28.0,24.0,30.24,North,351,0.0,-999.0,85,-99.99,,,-99.99,,2013-03-01 07:32:00,
2013-03-01 01:42:00,28.0,24.0,30.24,North,351,0.0,-999.0,85,-99.99,,,-99.99,,2013-03-01 07:42:00,
2013-03-01 01:52:00,28.0,24.0,30.24,North,351,0.0,-999.0,85,-99.99,,,-99.99,,2013-03-01 07:52:00,
2013-03-01 02:01:00,28.0,24.0,30.24,North,351,0.0,-999.0,85,-99.99,,,-99.99,,2013-03-01 08:01:00,
2013-03-01 02:11:00,28.0,24.0,30.24,North,351,0.0,-999.0,85,-99.99,,,-99.99,,2013-03-01 08:11:00,
2013-03-01 02:22:00,27.0,23.0,30.24,North,350,2.0,-999.0,85,-99.99,,,-99.99,,2013-03-01 08:22:00,
2013-03-01 02:32:00,27.0,23.0,30.24,NNW,348,0.0,-999.0,85,-99.99,,,-99.99,,2013-03-01 08:32:00,
2013-03-01 02:42:00,27.0,23.0,30.24,NNW,348,0.0,-999.0,85,-99.99,,,-99.99,,2013-03-01 08:42:00,
2013-03-01 02:53:00,27.0,23.0,30.23,NNW,348,1.0,-999.0,85,-99.99,,,-99.99,,2013-03-01 08:53:00,
2013-03-01 03:02:00,27.0,23.0,30.23,NNW,340,0.0,-999.0,85,-99.99,,,-99.99,,2013-03-01 09:02:00,
2013-03-01 03:12:00,27.0,23.0,30.23,NNW,340,0.0,-999.0,85,-99.99,,,-99.99,,2013-03-01 09:12:00,
2013-03-01 03:22:00,27.0,23.0,30.24,NNW,340,0.0,-999.0,85,-99.99,,,-99.99,,2013-03-01 09:22:00,
2013-03-01 03:32:00,27.0,23.0,30.24,NNW,340,0.0,-999.0,85,-99.99,,,-99.99,,2013-03-01 09:32:00,
2013-03-01 03:42:00,27.0,23.0,30.24,NNW,340,0.0,-999.0,85,-99.99,,,-99.99,,2013-03-01 09:42:00,
2013-03-01 03:52:00,27.0,23.0,30.23,NNW,340,0.0,-999.0,85,-99.99,,,-99.99,,2013-03-01 09:52:00,
2013-03-01 04:02:00,27.0,23.0,30.23,NNW,340,1.0,-999.0,85,-99.99,,,-99.99,,2013-03-01 10:02:00,
2013-03-01 04:11:00,27.0,23.0,30.23,NNW,340,1.0,-999.0,85,-99.99,,,-99.99,,2013-03-01 10:11:00,
2013-03-01 04:22:00,27.0,23.0,30.24,NNW,340,0.0,-999.0,85,-99.99,,,-99.99,,2013-03-01 10:22:00,
2013-03-01 04:32:00,27.0,23.0,30.24,NNW,340,0.0,-999.0,85,-99.99,,,-99.99,,2013-03-01 10:32:00,
2013-03-01 04:42:00,27.0,23.0,30.24,NNW,340,0.0,-999.0,85,-99.99,,,-99.99,,2013-03-01 10:42:00,
2013-03-01 04:53:00,27.0,23.0,30.24,NNW,340,0.0,-999.0,86,-99.99,,,-99.99,,2013-03-01 10:53:00,
2013-03-01 05:01:00,27.0,23.0,30.24,NNW,340,2.0,-999.0,85,-99.99,,,-99.99,,2013-03-01 11:01:00,
2013-03-01 05:11:00,27.0,23.0,30.24,NNW,340,2.0,-999.0,85,-99.99,,,-99.99,,2013-03-01 11:11:00,
2013-03-01 05:22:00,27.0,23.0,30.25,NNW,340,2.0,-999.0,85,-99.99,,,-99.99,,2013-03-01 11:22:00,
2013-03-01 05:32:00,27.0,23.0,30.25,NNW,340,3.0,-999.0,85,-99.99,,,-99.99,,2013-03-01 11:32:00,
2013-03-01 05:42:00,27.0,23.0,30.25,NNW,340,3.0,-999.0,85,-99.99,,,-99.99,,2013-03-01 11:42:00,
2013-03-01 05:52:00,27.0,23.0,30.25,NNW,341,4.0,-999.0,84,-99.99,,,-99.99,,2013-03-01 11:52:00,
2013-03-01 06:01:00,27.0,23.0,30.25,NNW,341,4.0,-999.0,84,-99.99,,,-99.99,,2013-03-01 12:01:00,
2013-03-01 06:11:00,27.0,23.0,30.25,NNW,341,4.0,-999.0,84,-99.99,,,-99.99,,2013-03-01 12:11:00,
2013-03-01 06:21:00,27.0,23.0,30.26,NNW,341,1.0,-999.0,84,-99.99,,,-99.99,,2013-03-01 12:21:00,
2013-03-01 06:32:00,27.0,23.0,30.26,NNW,341,0.0,-999.0,84,-99.99,,,-99.99,,2013-03-01 12:32:00,
2013-03-01 06:42:00,27.0,23.0,30.26,NNW,341,0.0,-999.0,84,-99.99,,,-99.99,,2013-03-01 12:42:00,
2013-03-01 06:52:00,27.0,23.0,30.26,NNW,341,0.0,-999.0,84,-99.99,,,-99.99,,2013-03-01 12:52:00,
2013-03-01 07:01:00,27.0,23.0,30.26,NNW,341,0.0,-999.0,84,-99.99,,,-99.99,,2013-03-01 13:01:00,
2013-03-01 07:11:00,27.0,23.0,30.26,NNW,341,0.0,-999.0,84,-99.99,,,-99.99,,2013-03-01 13:11:00,
2013-03-01 07:21:00,27.0,23.0,30.26,NNW,341,0.0,-999.0,84,-99.99,,,-99.99,,2013-03-01 13:21:00,
2013-03-01 07:32:00,27.0,23.0,30.26,NNW,341,0.0,-999.0,85,-99.99,,,-99.99,,2013-03-01 13:32:00,
2013-03-01 07:42:00,27.0,23.0,30.26,NNW,341,0.0,-999.0,85,-99.99,,,-99.99,,2013-03-01 13:42:00,
2013-03-01 07:52:00,27.0,23.0,30.27,NNW,341,0.0,-999.0,85,-99.99,,,-99.99,,2013-03-01 13:52:00,
2013-03-01 08:01:00,27.0,23.0,30.27,NNW,341,0.0,-999.0,85,-99.99,,,-99.99,,2013-03-01 14:01:00,
2013-03-01 08:11:00,27.0,23.0,30.27,NNW,341,0.0,-999.0,85,-99.99,,,-99.99,,2013-03-01 14:11:00,
2013-03-01 08:21:00,27.0,23.0,30.27,NNW,341,1.0,-999.0,85,-99.99,,,-99.99,,2013-03-01 14:21:00,
2013-03-01 08:32:00,27.0,23.0,30.27,NNW,341,0.0,-999.0,85,-99.99,,,-99.99,,2013-03-01 14:32:00,
2013-03-01 08:41:00,27.0,23.0,30.27,NNW,341,0.0,-999.0,85,-99.99,,,-99.99,,2013-03-01 14:41:00,
2013-03-01 08:52:00,27.0,23.0,30.28,NNW,341,0.0,-999.0,85,-99.99,,,-99.99,,2013-03-01 14:52:00,
2013-03-01 09:01:00,27.0,23.0,30.28,NNW,341,3.0,-999.0,84,-99.99,,,-99.99,,2013-03-01 15:01:00,
2013-03-01 09:11:00,28.0,24.0,30.28,NNW,341,4.0,-999.0,84,-99.99,,,-99.99,,2013-03-01 15:11:00,
2013-03-01 09:21:00,28.0,24.0,30.28,NNW,341,4.0,-999.0,84,-99.99,,,-99.99,,2013-03-01 15:21:00,
2013-03-01 09:31:00,28.0,24.0,30.29,NNW,341,4.0,-999.0,83,-99.99,,,-99.99,,2013-03-01 15:31:00,
2013-03-01 09:42:00,28.0,24.0,30.29,NNW,341,4.0,-999.0,83,-99.99,,,-99.99,,2013-03-01 15:42:00,
2013-03-01 09:52:00,28.0,23.0,30.29,NNW,341,4.0,-999.0,82,-99.99,,,-99.99,,2013-03-01 15:52:00,
2013-03-01 10:01:00,29.0,24.0,30.29,NNW,341,4.0,-999.0,82,-99.99,,,-99.99,,2013-03-01 16:01:00,
2013-03-01 10:11:00,29.0,24.0,30.29,NNW,341,4.0,-999.0,82,-99.99,,,-99.99,,2013-03-01 16:11:00,
2013-03-01 10:21:00,29.0,24.0,30.30,North,355,5.0,-999.0,82,-99.99,,,-99.99,,2013-03-01 16:21:00,
2013-03-01 10:32:00,29.0,24.0,30.30,North,355,4.0,-999.0,82,-99.99,,,-99.99,,2013-03-01 16:32:00,
2013-03-01 10:41:00,29.0,24.0,30.30,North,355,4.0,-999.0,82,-99.99,,,-99.99,,2013-03-01 16:41:00,
2013-03-01 10:52:00,30.0,25.0,30.29,North,355,4.0,-999.0,82,-99.99,,,-99.99,,2013-03-01 16:52:00,
2013-03-01 11:01:00,30.0,25.0,30.29,North,355,3.0,-999.0,81,-99.99,,,-99.99,,2013-03-01 17:01:00,
2013-03-01 11:11:00,30.0,25.0,30.29,North,355,3.0,-999.0,81,-99.99,,,-99.99,,2013-03-01 17:11:00,
2013-03-01 11:21:00,30.0,25.0,30.29,North,355,4.0,-999.0,81,-99.99,,,-99.99,,2013-03-01 17:21:00,
2013-03-01 11:32:00,31.0,26.0,30.29,North,355,4.0,-999.0,80,-99.99,,,-99.99,,2013-03-01 17:32:00,
2013-03-01 11:41:00,31.0,26.0,30.29,North,355,4.0,-999.0,80,-99.99,,,-99.99,,2013-03-01 17:41:00,
2013-03-01 11:52:00,32.0,26.0,30.29,North,355,5.0,-999.0,79,-99.99,,,-99.99,,2013-03-01 17:52:00,
2013-03-01 12:01:00,32.0,25.0,30.29,North,355,4.0,-999.0,76,-99.99,,,-99.99,,2013-03-01 18:01:00,
2013-03-01 12:12:00,32.0,25.0,30.29,North,355,4.0,-999.0,76,-99.99,,,-99.99,,2013-03-01 18:12:00,
2013-03-01 12:22:00,32.0,26.0,30.29,North,355,4.0,-999.0,77,-99.99,,,-99.99,,2013-03-01 18:22:00,
2013-03-01 12:31:00,32.0,25.0,30.29,North,355,3.0,-999.0,75,-99.99,,,-99.99,,2013-03-01 18:31:00,
2013-03-01 12:42:00,32.0,25.0,30.29,North,355,3.0,-999.0,75,-99.99,,,-99.99,,2013-03-01 18:42:00,
2013-03-01 12:52:00,32.0,25.0,30.29,North,355,4.0,-999.0,76,-99.99,,,-99.99,,2013-03-01 18:52:00,
2013-03-01 13:01:00,32.0,25.0,30.29,North,355,4.0,-999.0,76,-99.99,,,-99.99,,2013-03-01 19:01:00,
2013-03-01 13:11:00,32.0,25.0,30.29,North,355,4.0,-999.0,76,-99.99,,,-99.99,,2013-03-01 19:11:00,
2013-03-01 13:21:00,32.0,25.0,30.29,North,355,4.0,-999.0,74,-99.99,,,-99.99,,2013-03-01 19:21:00,
2013-03-01 13:31:00,32.0,25.0,30.28,North,355,3.0,-999.0,74,-99.99,,,-99.99,,2013-03-01 19:31:00,
2013-03-01 13:42:00,32.0,25.0,30.28,North,355,3.0,-999.0,74,-99.99,,,-99.99,,2013-03-01 19:42:00,
2013-03-01 13:52:00,32.0,24.0,30.28,North,360,3.0,-999.0,71,-99.99,,,-99.99,,2013-03-01 19:52:00,
2013-03-01 14:01:00,33.0,24.0,30.28,North,360,5.0,-999.0,70,-99.99,,,-99.99,,2013-03-01 20:01:00,
2013-03-01 14:11:00,33.0,24.0,30.28,North,360,5.0,-999.0,70,-99.99,,,-99.99,,2013-03-01 20:11:00,
2013-03-01 14:21:00,33.0,24.0,30.28,North,360,0.0,-999.0,70,-99.99,,,-99.99,,2013-03-01 20:21:00,
2013-03-01 14:31:00,32.0,24.0,30.28,North,360,0.0,-999.0,71,-99.99,,,-99.99,,2013-03-01 20:31:00,
2013-03-01 14:41:00,32.0,24.0,30.28,North,360,0.0,-999.0,71,-99.99,,,-99.99,,2013-03-01 20:41:00,
2013-03-01 14:52:00,32.0,24.0,30.29,North,360,6.0,-999.0,73,-99.99,,,-99.99,,2013-03-01 20:52:00,
2013-03-01 15:01:00,31.0,24.0,30.29,North,360,6.0,-999.0,75,-99.99,,,-99.99,,2013-03-01 21:01:00,
2013-03-01 15:11:00,31.0,25.0,30.29,North,360,4.0,-999.0,77,-99.99,,,-99.99,,2013-03-01 21:11:00,
2013-03-01 15:21:00,31.0,25.0,30.29,North,360,4.0,-999.0,77,-99.99,,,-99.99,,2013-03-01 21:21:00,
2013-03-01 15:31:00,31.0,24.0,30.29,North,360,6.0,-999.0,75,-99.99,,,-99.99,,2013-03-01 21:31:00,
2013-03-01 15:41:00,31.0,24.0,30.29,North,360,6.0,-999.0,75,-99.99,,,-99.99,,2013-03-01 21:41:00,
2013-03-01 15:52:00,31.0,24.0,30.30,North,360,4.0,-999.0,74,-99.99,,,-99.99,,2013-03-01 21:52:00,
2013-03-01 16:01:00,31.0,24.0,30.30,North,360,1.0,-999.0,74,-99.99,,,-99.99,,2013-03-01 22:01:00,
2013-03-01 16:11:00,31.0,23.0,30.30,North,360,1.0,-999.0,73,-99.99,,,-99.99,,2013-03-01 22:11:00,
2013-03-01 16:21:00,31.0,23.0,30.30,North,360,1.0,-999.0,73,-99.99,,,-99.99,,2013-03-01 22:21:00,
2013-03-01 16:31:00,30.0,22.0,30.30,North,9,2.0,-999.0,72,-99.99,,,-99.99,,2013-03-01 22:31:00,
2013-03-01 16:42:00,30.0,22.0,30.30,North,9,2.0,-999.0,72,-99.99,,,-99.99,,2013-03-01 22:42:00,
2013-03-01 16:52:00,30.0,23.0,30.30,North,5,4.0,-999.0,75,-99.99,,,-99.99,,2013-03-01 22:52:00,
2013-03-01 17:01:00,30.0,23.0,30.30,North,5,4.0,-999.0,75,-99.99,,,-99.99,,2013-03-01 23:01:00,
2013-03-01 17:11:00,30.0,23.0,30.30,North,5,4.0,-999.0,75,-99.99,,,-99.99,,2013-03-01 23:11:00,
2013-03-01 17:21:00,29.0,22.0,30.31,North,5,0.0,-999.0,75,-99.99,,,-99.99,,2013-03-01 23:21:00,
2013-03-01 17:31:00,28.0,21.0,30.31,North,360,1.0,-999.0,74,-99.99,,,-99.99,,2013-03-01 23:31:00,
2013-03-01 17:41:00,28.0,21.0,30.31,North,360,1.0,-999.0,74,-99.99,,,-99.99,,2013-03-01 23:41:00,
2013-03-01 17:52:00,28.0,21.0,30.32,North,360,0.0,-999.0,75,-99.99,,,-99.99,,2013-03-01 23:52:00,
2013-03-01 18:02:00,28.0,21.0,30.32,North,360,0.0,-999.0,76,-99.99,,,-99.99,,2013-03-02 00:02:00,
2013-03-01 18:11:00,28.0,21.0,30.32,North,360,0.0,-999.0,76,-99.99,,,-99.99,,2013-03-02 00:11:00,
2013-03-01 18:22:00,27.0,20.0,30.32,North,360,0.0,-999.0,76,-99.99,,,-99.99,,2013-03-02 00:22:00,
2013-03-01 18:32:00,26.0,20.0,30.33,North,360,0.0,-999.0,77,-99.99,,,-99.99,,2013-03-02 00:32:00,
2013-03-01 18:42:00,26.0,20.0,30.33,North,360,0.0,-999.0,77,-99.99,,,-99.99,,2013-03-02 00:42:00,
2013-03-01 18:52:00,25.0,19.0,30.34,North,360,0.0,-999.0,79,-99.99,,,-99.99,,2013-03-02 00:52:00,
2013-03-01 19:01:00,25.0,19.0,30.34,North,360,0.0,-999.0,79,-99.99,,,-99.99,,2013-03-02 01:01:00,
2013-03-01 19:11:00,25.0,19.0,30.34,North,360,0.0,-999.0,79,-99.99,,,-99.99,,2013-03-02 01:11:00,
2013-03-01 19:21:00,25.0,20.0,30.35,North,360,0.0,-999.0,81,-99.99,,,-99.99,,2013-03-02 01:21:00,
2013-03-01 19:31:00,25.0,20.0,30.35,North,360,0.0,-999.0,82,-99.99,,,-99.99,,2013-03-02 01:31:00,
2013-03-01 19:41:00,25.0,20.0,30.35,North,360,0.0,-999.0,82,-99.99,,,-99.99,,2013-03-02 01:41:00,
2013-03-01 19:52:00,24.0,19.0,30.35,North,360,0.0,-999.0,82,-99.99,,,-99.99,,2013-03-02 01:52:00,
2013-03-01 20:01:00,24.0,20.0,30.35,North,360,0.0,-999.0,83,-99.99,,,-99.99,,2013-03-02 02:01:00,
2013-03-01 20:11:00,24.0,20.0,30.35,North,360,0.0,-999.0,83,-99.99,,,-99.99,,2013-03-02 02:11:00,
2013-03-01 20:22:00,24.0,20.0,30.36,North,360,0.0,-999.0,83,-99.99,,,-99.99,,2013-03-02 02:22:00,
2013-03-01 20:32:00,24.0,20.0,30.35,North,360,0.0,-999.0,83,-99.99,,,-99.99,,2013-03-02 02:32:00,
2013-03-01 20:42:00,24.0,20.0,30.35,North,360,0.0,-999.0,83,-99.99,,,-99.99,,2013-03-02 02:42:00,
2013-03-01 20:52:00,23.0,19.0,30.35,North,360,0.0,-999.0,84,-99.99,,,-99.99,,2013-03-02 02:52:00,
2013-03-01 21:01:00,22.0,18.0,30.35,North,360,0.0,-999.0,84,-99.99,,,-99.99,,2013-03-02 03:01:00,
2013-03-01 21:11:00,22.0,18.0,30.35,North,360,0.0,-999.0,84,-99.99,,,-99.99,,2013-03-02 03:11:00,
2013-03-01 21:21:00,22.0,18.0,30.36,North,360,0.0,-999.0,85,-99.99,,,-99.99,,2013-03-02 03:21:00,
2013-03-01 21:32:00,22.0,18.0,30.37,North,360,0.0,-999.0,85,-99.99,,,-99.99,,2013-03-02 03:32:00,
2013-03-01 21:42:00,22.0,18.0,30.37,North,360,0.0,-999.0,85,-99.99,,,-99.99,,2013-03-02 03:42:00,
2013-03-01 21:52:00,21.0,17.0,30.37,North,360,0.0,-999.0,85,-99.99,,,-99.99,,2013-03-02 03:52:00,
2013-03-01 22:01:00,21.0,17.0,30.37,North,360,0.0,-999.0,86,-99.99,,,-99.99,,2013-03-02 04:01:00,
2013-03-01 22:11:00,21.0,17.0,30.37,North,360,0.0,-999.0,86,-99.99,,,-99.99,,2013-03-02 04:11:00,
2013-03-01 22:21:00,21.0,18.0,30.37,North,360,0.0,-999.0,87,-99.99,,,-99.99,,2013-03-02 04:21:00,
2013-03-01 22:32:00,21.0,18.0,30.38,North,360,0.0,-999.0,88,-99.99,,,-99.99,,2013-03-02 04:32:00,
2013-03-01 22:42:00,21.0,18.0,30.38,North,360,0.0,-999.0,88,-99.99,,,-99.99,,2013-03-02 04:42:00,
2013-03-01 22:52:00,23.0,20.0,30.37,North,360,1.0,-999.0,88,-99.99,,,-99.99,,2013-03-02 04:52:00,
2013-03-01 23:01:00,24.0,21.0,30.37,North,360,4.0,-999.0,87,-99.99,,,-99.99,,2013-03-02 05:01:00,
2013-03-01 23:12:00,24.0,21.0,30.37,North,360,4.0,-999.0,87,-99.99,,,-99.99,,2013-03-02 05:12:00,
2013-03-01 23:22:00,24.0,20.0,30.37,North,360,4.0,-999.0,86,-99.99,,,-99.99,,2013-03-02 05:22:00,
2013-03-01 23:32:00,24.0,20.0,30.37,North,360,3.0,-999.0,85,-99.99,,,-99.99,,2013-03-02 05:32:00,
2013-03-01 23:42:00,24.0,20.0,30.37,North,360,3.0,-999.0,85,-99.99,,,-99.99,,2013-03-02 05:42:00,
2013-03-01 23:52:00,25.0,21.0,30.37,North,360,3.0,-999.0,85,-99.99,,,-99.99,,2013-03-02 05:52:00,